Location: Helion Bumpstead
(52.0500°N, 0.4000°E)
Time: 07:57:20
(UTC+00:00)

ADEOS II - Pass Details

Date: 15 November 2025
Orbit: 794 x 794 km, 98.8° (Epoch: 14 December)

Event Time Altitude Azimuth Distance (km) Brightness Sun altitude
Rises 05:17:36 0° 4° (N) 3,312 5.3 -18.4°
Reaches altitude 10° 05:21:25 10° 336° (NNW) 2,377 4.2 -17.8°
Enters shadow 05:21:34 10° 335° (NNW) 2,354 4.2 -17.8°
